Flag for Germany Weather past 2 weeks in Norden, Lower Saxony, Germany

43 °F

Passing clouds.

Feels Like: 33 °F
Forecast: 46 / 51 °F
Wind: 24 mph from Southwest

Location: Wittmundhaven

Current Time: Nov 29, 2015 at 12:00:23 AM

Latest Report: Nov 28, 2015 at 10:20 PM

Visibility: N/A

Pressure: 29.59 "Hg

Humidity: 81%

Dew point: 37 °F

Location of NordenLocation

Historic Weather in Norden — Graph


Norden temperature yesterday

Maximum temperature yesterday: 46 °F (at 11:20 AM)
Minimum temperature yesterday: 39 °F (at 4:20 AM)
Average temperature yesterday: 43 °F

Past Weeks' High & Low Weather Summary

High57 °F (Nov 17, 11:20 PM)100% (Nov 15, 3:20 AM)30.18 "Hg (Nov 15, 3:20 AM)
Low28 °F (Nov 23, 8:20 AM)57% (Nov 22, 1:20 PM)29.27 "Hg (Nov 21, 5:20 AM)
Average45 °F86%29.72 "Hg
* Reported Nov 13 10:20 PM — Nov 28 10:20 PM, Norden, Weather by CustomWeather, © 2015

Note: Actual official high and low records may vary slightly from our data, if they occured in-between our weather recording intervals... More about our weather records


Norden weather history for previous 24 hours

Time TempWeatherWind HumidityBarometerVisibility
10:20 PM
Sat, Nov 28
43 °FPassing clouds.24 mph81%29.59 "HgN/A
9:20 PM43 °FPassing clouds.23 mph76%29.65 "HgN/A
8:20 PM43 °FPassing clouds.22 mph76%29.68 "HgN/A
7:20 PM43 °FPartly cloudy.20 mph76%29.71 "HgN/A
6:20 PM41 °FPassing clouds.15 mph81%29.74 "HgN/A
5:20 PM43 °FPassing clouds.13 mph76%29.77 "HgN/A
4:20 PM43 °FPartly cloudy.13 mph76%29.77 "HgN/A
3:20 PM45 °FScattered clouds.13 mph71%29.77 "HgN/A
2:20 PM46 °FPassing clouds.16 mph66%29.77 "HgN/A
1:20 PM45 °FSprinkles. Scattered clouds.16 mph71%29.77 "Hg6 mi
12:20 PM46 °FScattered clouds.16 mph66%29.74 "HgN/A
11:20 AM46 °FPassing clouds.13 mph66%29.71 "HgN/A
10:20 AM45 °FScattered clouds.15 mph71%29.71 "HgN/A
9:20 AM43 °FBroken clouds.14 mph76%29.68 "HgN/A
8:20 AM43 °FPartly sunny.12 mph87%29.65 "Hg6 mi
7:20 AM43 °FLight rain. Partly cloudy.15 mph87%29.59 "Hg4 mi
6:20 AM43 °FRain. Partly cloudy.17 mph93%29.56 "Hg4 mi
5:20 AM39 °FRain. Fog.15 mph100%29.53 "Hg2 mi
4:20 AM39 °FRain. Fog.16 mph93%29.53 "Hg2 mi
3:20 AM41 °FLight rain. Passing clouds.21 mph87%29.53 "Hg5 mi
2:20 AM41 °FPassing clouds.17 mph87%29.56 "HgN/A
1:50 AM41 °FLight rain. Passing clouds.16 mph87%29.59 "HgN/A
1:20 AM43 °FLight rain. Passing clouds.15 mph81%29.59 "Hg5 mi
12:20 AM43 °FPassing clouds.16 mph81%29.62 "HgN/A
Weather by CustomWeather, © 2015

See weather overviewHow to use our weather pages